When you browse on this site, cookies collect data to enhance your experience and personalize the content and advertising you see.
Visit our Privacy Policy to learn more. By continuing to use the site, you agree to this use of cookies and data.
EN

Hourly Weather Kubanovka

Today, 4 August, Tuesday

Time Temperature Precipitation Wind Pressure Humidity
00:00 +14°C° 0 mm 0 mps 742 mmHg 72%
01:00 +13°C° 0 mm 0 mps 742 mmHg 74%
02:00 +13°C° 0 mm 0 mps 742 mmHg 77%
03:00 +14°C° 0 mm 1 mps 742 mmHg 78%
04:00 +14°C° 0 mm 1 mps 742 mmHg 79%
05:00 +14°C° 0 mm 1 mps 742 mmHg 79%
06:00 +16°C° 0 mm 1 mps 742 mmHg 74%
07:00 +19°C° 0 mm 1 mps 743 mmHg 69%
08:00 +21°C° 0 mm 1 mps 743 mmHg 63%
09:00 +21°C° 0 mm 1 mps 743 mmHg 60%
10:00 +22°C° 0 mm 1 mps 743 mmHg 56%
11:00 +23°C° 0 mm 2 mps 743 mmHg 53%
12:00 +24°C° 0 mm 1 mps 743 mmHg 52%
13:00 +24°C° 0 mm 1 mps 743 mmHg 50%
14:00 +25°C° 0 mm 1 mps 743 mmHg 47%
15:00 +25°C° 0 mm 1 mps 743 mmHg 50%
16:00 +25°C° 0 mm 1 mps 743 mmHg 53%
17:00 +24°C° 0 mm 1 mps 742 mmHg 56%
18:00 +23°C° 0 mm 1 mps 742 mmHg 60%
19:00 +20°C° 0 mm 2 mps 742 mmHg 63%
20:00 +18°C° 0 mm 2 mps 743 mmHg 67%
21:00 +18°C° 0 mm 2 mps 743 mmHg 69%
22:00 +17°C° 0 mm 2 mps 742 mmHg 71%
23:00 +16°C° 0 mm 2 mps 742 mmHg 73%

Tomorrow, 5 August, Wednesday

Time Temperature Precipitation Wind Pressure Humidity
00:00 +16°C° 0 mm 2 mps 743 mmHg 75%
01:00 +16°C° 0 mm 2 mps 743 mmHg 76%
02:00 +15°C° 0 mm 2 mps 743 mmHg 78%
03:00 +15°C° 0 mm 2 mps 743 mmHg 79%
04:00 +15°C° 0 mm 2 mps 743 mmHg 80%
05:00 +15°C° 0 mm 1 mps 743 mmHg 81%
06:00 +18°C° 0 mm 1 mps 743 mmHg 75%
07:00 +20°C° 0 mm 1 mps 743 mmHg 70%
08:00 +22°C° 0 mm 1 mps 743 mmHg 65%
09:00 +23°C° 0 mm 1 mps 744 mmHg 61%
10:00 +24°C° 0 mm 2 mps 744 mmHg 57%
11:00 +25°C° 0 mm 2 mps 744 mmHg 53%
12:00 +25°C° 0 mm 1 mps 744 mmHg 51%
13:00 +26°C° 0 mm 1 mps 744 mmHg 50%
14:00 +26°C° 0 mm 1 mps 743 mmHg 48%
15:00 +26°C° 0 mm 1 mps 743 mmHg 51%
16:00 +26°C° 0 mm 1 mps 743 mmHg 54%
17:00 +26°C° 0 mm 1 mps 743 mmHg 56%
18:00 +24°C° 0 mm 1 mps 743 mmHg 61%
19:00 +22°C° 0 mm 1 mps 743 mmHg 66%
20:00 +20°C° 0 mm 1 mps 743 mmHg 71%
21:00 +20°C° 0 mm 1 mps 743 mmHg 72%
22:00 +19°C° 0 mm 1 mps 744 mmHg 74%
23:00 +19°C° 0 mm 1 mps 744 mmHg 76%

Day after tomorrow, 6 August, Thursday

Time Temperature Precipitation Wind Pressure Humidity
00:00 +18°C° 0 mm 1 mps 744 mmHg 78%
01:00 +18°C° 0 mm 1 mps 744 mmHg 80%
02:00 +18°C° 0 mm 1 mps 744 mmHg 82%
03:00 +18°C° 0 mm 1 mps 744 mmHg 82%
04:00 +18°C° 0 mm 1 mps 744 mmHg 82%
05:00 +18°C° 0 mm 1 mps 744 mmHg 83%
06:00 +20°C° 0 mm 1 mps 744 mmHg 77%
07:00 +21°C° 0 mm 1 mps 745 mmHg 71%
08:00 +23°C° 0 mm 1 mps 745 mmHg 66%
09:00 +24°C° 0 mm 2 mps 745 mmHg 61%
10:00 +25°C° 0 mm 2 mps 745 mmHg 57%
11:00 +26°C° 0 mm 2 mps 745 mmHg 53%
12:00 +27°C° 0 mm 2 mps 745 mmHg 51%
13:00 +27°C° 0 mm 2 mps 745 mmHg 50%
14:00 +28°C° 0 mm 2 mps 744 mmHg 48%
15:00 +27°C° 0 mm 2 mps 744 mmHg 52%
16:00 +27°C° 0 mm 2 mps 744 mmHg 56%
17:00 +27°C° 0 mm 1 mps 744 mmHg 60%
18:00 +25°C° 0 mm 1 mps 744 mmHg 64%
19:00 +24°C° 0 mm 1 mps 744 mmHg 67%
20:00 +22°C° 0 mm 1 mps 744 mmHg 71%
21:00 +22°C° 0 mm 1 mps 744 mmHg 74%
22:00 +21°C° 0 mm 1 mps 744 mmHg 76%
23:00 +20°C° 0 mm 2 mps 744 mmHg 79%

7 August, Friday

Time Temperature Precipitation Wind Pressure Humidity
00:00 +19°C° 0 mm 2 mps 744 mmHg 84%
01:00 +19°C° 0 mm 3 mps 744 mmHg 89%
02:00 +18°C° 0 mm 3 mps 744 mmHg 94%
03:00 +18°C° 0 mm 4 mps 744 mmHg 93%
04:00 +18°C° 0 mm 4 mps 744 mmHg 91%
05:00 +17°C° 0 mm 4 mps 744 mmHg 89%
06:00 +18°C° 0 mm 4 mps 745 mmHg 83%
07:00 +19°C° 0 mm 5 mps 745 mmHg 77%
08:00 +20°C° 0 mm 5 mps 745 mmHg 71%
09:00 +21°C° 0 mm 5 mps 745 mmHg 68%
10:00 +22°C° 0 mm 5 mps 745 mmHg 64%
11:00 +23°C° 0 mm 6 mps 745 mmHg 60%
12:00 +24°C° 0 mm 6 mps 745 mmHg 58%
13:00 +24°C° 0 mm 6 mps 745 mmHg 57%
14:00 +24°C° 0 mm 6 mps 745 mmHg 55%
15:00 +23°C° 0 mm 5 mps 745 mmHg 58%
16:00 +23°C° 0 mm 5 mps 745 mmHg 61%
17:00 +22°C° 0 mm 5 mps 745 mmHg 64%
18:00 +21°C° 0 mm 4 mps 745 mmHg 68%
19:00 +19°C° 0 mm 4 mps 745 mmHg 72%
20:00 +18°C° 0 mm 3 mps 745 mmHg 77%
21:00 +17°C° 0 mm 3 mps 745 mmHg 77%
22:00 +17°C° 0 mm 3 mps 745 mmHg 78%
23:00 +17°C° 0 mm 3 mps 745 mmHg 79%

8 August, Saturday

Time Temperature Precipitation Wind Pressure Humidity
00:00 +16°C° 0 mm 3 mps 745 mmHg 81%
01:00 +14°C° 0 mm 3 mps 744 mmHg 84%
02:00 +14°C° 0 mm 3 mps 744 mmHg 86%
03:00 +14°C° 0 mm 3 mps 744 mmHg 87%
04:00 +13°C° 0 mm 3 mps 744 mmHg 88%
05:00 +13°C° 0 mm 3 mps 744 mmHg 89%
06:00 +15°C° 0 mm 4 mps 744 mmHg 83%
07:00 +17°C° 0 mm 4 mps 744 mmHg 77%
08:00 +19°C° 0 mm 4 mps 744 mmHg 71%
09:00 +20°C° 0 mm 4 mps 744 mmHg 66%
10:00 +21°C° 0 mm 5 mps 744 mmHg 62%
11:00 +22°C° 0 mm 5 mps 744 mmHg 57%
12:00 +22°C° 0 mm 5 mps 744 mmHg 57%
13:00 +22°C° 0 mm 4 mps 743 mmHg 56%
14:00 +23°C° 0 mm 4 mps 743 mmHg 55%
15:00 +22°C° 0 mm 4 mps 743 mmHg 57%
16:00 +22°C° 0 mm 4 mps 743 mmHg 59%
17:00 +22°C° 0 mm 3 mps 742 mmHg 62%
18:00 +20°C° 0 mm 3 mps 742 mmHg 67%
19:00 +19°C° 0 mm 3 mps 742 mmHg 72%
20:00 +17°C° 0 mm 3 mps 742 mmHg 78%
21:00 +16°C° 0 mm 2 mps 742 mmHg 79%
22:00 +16°C° 0 mm 2 mps 742 mmHg 80%
23:00 +15°C° 0 mm 2 mps 742 mmHg 82%

9 August, Sunday

Time Temperature Precipitation Wind Pressure Humidity
00:00 +15°C° 0 mm 2 mps 741 mmHg 82%
01:00 +15°C° 0 mm 2 mps 741 mmHg 82%
02:00 +15°C° 0 mm 2 mps 741 mmHg 82%
03:00 +15°C° 0 mm 2 mps 741 mmHg 83%
04:00 +14°C° 0 mm 2 mps 741 mmHg 85%
05:00 +14°C° 0 mm 2 mps 740 mmHg 86%
06:00 +16°C° 0 mm 3 mps 740 mmHg 80%
07:00 +18°C° 0 mm 3 mps 740 mmHg 75%
08:00 +19°C° 0 mm 3 mps 740 mmHg 69%
09:00 +20°C° 0 mm 3 mps 740 mmHg 64%
10:00 +21°C° 0 mm 3 mps 740 mmHg 58%
11:00 +22°C° 0 mm 3 mps 740 mmHg 52%
12:00 +22°C° 0 mm 3 mps 740 mmHg 52%
13:00 +22°C° 0 mm 3 mps 740 mmHg 52%
14:00 +24°C° 0 mm 3 mps 739 mmHg 52%
15:00 +23°C° 0 mm 2 mps 739 mmHg 53%
16:00 +23°C° 0 mm 2 mps 739 mmHg 55%
17:00 +23°C° 0 mm 2 mps 739 mmHg 56%
18:00 +21°C° 0 mm 2 mps 739 mmHg 62%
19:00 +19°C° 0 mm 2 mps 739 mmHg 67%
20:00 +18°C° 0 mm 1 mps 738 mmHg 72%
21:00 +17°C° 0 mm 2 mps 738 mmHg 74%
22:00 +16°C° 0 mm 2 mps 738 mmHg 76%
23:00 +16°C° 0 mm 2 mps 738 mmHg 78%
Show more